Regional Weather Roundup
Issued by NWS

Home | Current Version | Previous Version | Graphics & Text | Print | Product List | Glossary Off
Versions: 1 2 3 4 5 6 7 8 9 10 11 12 13 14 15 16 17 18 19 20 21 22 23 24 25 26 27 28 29 30 31 32 33 34 35 36 37 38 39 40 41 42 43 44 45 46 47 48 49 50

000
ASUS43 KDMX 301507
RWRIA

WEATHER ROUNDUP FOR IOWA
NATIONAL WEATHER SERVICE DES MOINES IA
1000 AM CDT SAT MAY 30 2015

NOTE: "FAIR" INDICATES FEW OR NO CLOUDS BELOW 12,000 FEET WITH NO
SIGNIFICANT WEATHER AND/OR OBSTRUCTIONS TO VISIBILITY.

* - THESE STATIONS ARE NOT NWS STATIONS...THUS NOT UNDER NWS
QUALITY CONTROL.  THEY ALSO DO NOT REPORT WEATHER SUCH
AS PRECIPITATION OR FOG.

IAZ001>003-012>014-020>022-031>034-043>046-301600-
   NORTHWEST IOWA

CITY           SKY/WX    TMP DP  RH WIND       PRES   REMARKS
CARROLL *      CLOUDY    52  48  87 N20       30.16S
CHEROKEE *     MOSUNNY   52  45  76 N13G22    30.21S
DENISON *      CLOUDY    52  48  87 N16       30.17S
LE MARS *      CLOUDY    52  43  71 N17       30.25S
ORANGE CITY *  MOSUNNY   50  43  76 N14G22    30.23S
SHELDON *      PTSUNNY   50  45  81 N18G24    30.22S
SIOUX CITY     CLOUDY    53  42  66 N20       30.23S
SPENCER        CLOUDY    53  42  66 N20       30.21R
STORM LAKE *   PTSUNNY   52  43  71 NE22G29   30.20R
$$

IAZ055>058-069>071-079>083-090>094-301600-
   SOUTHWEST IOWA

CITY           SKY/WX    TMP DP  RH WIND       PRES   REMARKS
ATLANTIC *     CLOUDY    52  50  93 N14       30.16R
AUDUBON *      CLOUDY    52  46  82 N16G22    30.17R
CLARINDA *     CLOUDY    55  52  88 N16G23    30.15R
COUNCIL BLFS * CLOUDY    54  52  94 N16G22    30.17S
CRESTON *      CLOUDY    54  54 100 N16G24    30.11S
HARLAN  *      CLOUDY    52  52 100 N13G22    30.20S
LAMONI         CLOUDY    59  54  83 N12G21    30.08S
RED OAK *      CLOUDY    55  50  82 N17G24    30.15S
SHENANDOAH *   CLOUDY    55  52  88 N14G20    30.16R
$$

IAZ047>049-059>061-072>074-084-301600-
   CENTRAL IOWA

CITY           SKY/WX    TMP DP  RH WIND       PRES   REMARKS
AMES           CLOUDY    56  49  77 N20G25    30.11R
ANKENY *       CLOUDY    57  52  82 N13G29    30.09S
CHARITON *     CLOUDY    57  55  94 NW14      30.07R FOG
DES MOINES     CLOUDY    58  52  80 N16       30.09R
GRINNELL*      CLOUDY    57  55  94 N17G23    30.06S FOG
KNOXVILLE *    CLOUDY    57  54  88 N12G18    30.05S
MARSHALLTOWN   CLOUDY    56  53  90 N17G26    30.07S
PELLA *        CLOUDY    59  59 100 N12       30.06F FOG
PERRY *        CLOUDY    54  52  94 N15       30.13S
$$

IAZ004>006-015-016-023>025-035-036-301600-
   NORTH CENTRAL IOWA

CITY           SKY/WX    TMP DP  RH WIND       PRES   REMARKS
ALGONA *       CLOUDY    50  45  81 N18G26    30.18S
CLARION *      CLOUDY    54  48  82 N22G29    30.14R
ESTHERVILLE    CLOUDY    50  43  77 N20G29    30.19S
FORT DODGE *   CLOUDY    54  45  71 N13G20    30.16S
MASON CITY     CLOUDY    54  47  77 N21G29    30.15R
FOREST CITY *  CLOUDY    50  45  81 N15G21    30.16R
IOWA FALLS *   CLOUDY    54  50  87 N14G23    30.12R
$$

IAZ007>011-017>019-026>030-037>042-050>054-066-301600-
   NORTHEAST IOWA

CITY           SKY/WX    TMP DP  RH WIND       PRES   REMARKS
CEDAR RAPIDS   CLOUDY    63  60  90 N16       30.00R
CHARLES CITY * CLOUDY    54  52  94 N20G26    30.12R
CLINTON *      CLOUDY    68  63  83 SW5       30.00R
DECORAH *      CLOUDY    54  52  94 N14G23    30.09R
DUBUQUE        CLOUDY    61  58  90 N13G23    30.00R
MONTICELLO *   CLOUDY    63  61  94 N10G18    30.00S
OELWEIN *      CLOUDY    57  55  94 N20G26    30.07R
WATERLOO       CLOUDY    55  53  93 N16       30.07R
$$

IAZ064-065-067-068-078-301600-
   EAST CENTRAL IOWA

CITY           SKY/WX    TMP DP  RH WIND       PRES   REMARKS
DAVENPORT      CLOUDY    68  64  87 S7        29.98R
IOWA CITY      CLOUDY    65  60  84 N13       30.01R
MT. PLEASANT * CLOUDY    64  64 100 NW8       30.00R
MUSCATINE *    CLOUDY    70  64  83 N6        29.98S
QUAD CITIES    LGT RAIN  68  65  90 S3        29.97S FOG
$$

IAZ062-063-075>077-085>089-095>099-301600-
   SOUTHEAST IOWA

CITY           SKY/WX    TMP DP  RH WIND       PRES   REMARKS
BURLINGTON     HVY RAIN  66  66 100 W9        29.98R VSB 1
FAIRFIELD *    CLOUDY    63  61  94 NW12      30.02R
FORT MADISON * LGT RAIN  64  64 100 W6        30.00S
KEOKUK *       PTSUNNY   66  66 100 W7        29.98S
OSKALOOSA *    CLOUDY    61  57  88 N17       30.04S
CENTERVILLE *  CLOUDY    59  59 100 NW13      30.06S
OTTUMWA        CLOUDY    60  58  92 NW14      30.03R
WASHINGTON *   CLOUDY    66  63  88 N13       30.02R
$$

ABBREVIATIONS USED IN REMARKS
   TC - TEMPERATURES IN CELSIUS
  WCI - WIND CHILL INDEX
   HX - HEAT INDEX
  VSB - VISIBILITY
$$



USA.gov is the U.S. government's official web portal to all federal, state and local government web resources and services.